Kezdőlap
METAR-TAF:

METAR-TAF

Repülőterek :

Black River Falls, Wisconsin, Amerikai Egyesült Államok

földrajzi szélesség: 44-15-03N, földrajzi hosszúság: 090-51-19W, magasság: 255 m

Jelenlegi meteorológiai megfigyelések

A jelentés 21 perccel ezelõtt készült, 10:15 UTC
Szélcsend
Hőmérséklet 1°C
Páratartalom 93%
Légköri nyomás 1017 hPa
Látótávolság: 11.3 km
Derült ég

METAR: KBCK 171015Z AUTO 00000KT 7SM CLR 01/00 A3002 RMK AO2 T00050001

Idő: 05:36 (10:36 UTC)


TAF: hiányzik

Meteorológiai megfigyelések és előrejelzések több, mint 4000 repülőtéren (METAR és TAF jelentéseket).

A térképen piros és sárga pontok jelzik az elérhető meteorológiai állomásokat.

Mozgassa az egeret a pont fölött, hogy megjelenjen az állomás neve.

Azután kattintson az időjárási megfigyelések és előrejelzések megtekintéséhez.

A térkép megváltoztatása: kattintson a fekete keresztel jelölt zöld gombra ráközelítéshez, a vonallal jelölt zöld gombra távolításhoz, vagy a zöld nyilakra a szomszédos térképek eléréséhez.


METAR-TAF: